Weather History for Galveston, TX

Change the Weather History Date:

Wednesday, December 18, 2013

  Actual Average Record
Temperature  
Mean Temperature 56 °F 57 °F  
Max Temperature 65 °F 63 °F 74 °F (1889)
Min Temperature 47 °F 50 °F 29 °F (1884)
Degree Days  
Heating Degree Days 9 9  
Month to date heating degree days 223 137  
Since 1 July heating degree days 401 240  
Cooling Degree Days 0 0  
Month to date cooling degree days 11 14  
Year to date cooling degree days 3322 3303  
Growing Degree Days 5 (Base 50)    
Moisture  
Dew Point 52 °F    
Average Humidity 87    
Maximum Humidity 100    
Minimum Humidity 73    
Precipitation  
Precipitation 0.00 in 0.11 in 3.81 in (1965)
Month to date precipitation 0.14 2.20  
Year to date precipitation 38.73 49.44  
Snow  
Snow 0.00 in - 0.00 in (2001)
Month to date snowfall 0.0  
Since 1 July snowfall 0.0  
Snow Depth 0.00 in    
Sea Level Pressure  
Sea Level Pressure 30.27 in    
Wind  
Wind Speed 7 mph (ESE)    
Max Wind Speed 16 mph    
Max Gust Speed 20 mph    
Visibility 6 miles    
Events Fog    
T = Trace of Precipitation, MM = Missing Value Source: NWS Daily Summary

Daily Weather History Graph

Daily Weather History Graph

Search for Another Location

Airport:

Trip Planner

Search our weather history database for the weather conditions in past years. The results will help you decide how hot, cold, wet, or windy it might be!

Date:

Astronomy

Dec. 18, 2013 Rise Set
Actual Time 7:08 AM CST 5:24 PM CST
Civil Twilight 6:41 AM CST 5:50 PM CST
Nautical Twilight 6:12 AM CST 6:20 PM CST
Astronomical Twilight 5:43 AM CST 6:49 PM CST
Moon 6:50 PM CST (12/18) 7:54 AM CST (12/18)
Length of Visible Light 11h 08m
Length of Day
10h 16m
Full, 98% of the Moon is Illuminated
Dec 18
Full
Dec 25
Last Quarter
Jan 1
New
Jan 7
First Quarter
Jan 15
Full

Hourly Weather History & Observations

Time (CST) Temp. Windchill Dew Point Humidity Pressure Visibility Wind Dir Wind Speed Gust Speed Precip Events Conditions
12:52 AM 51.1 °F - 51.1 °F 100% 30.31 in 9.0 mi Calm Calm - N/A   Clear
1:52 AM 51.1 °F - 51.1 °F 100% 30.30 in 9.0 mi Calm Calm - N/A   Clear
2:07 AM 51.8 °F - 51.8 °F 100% 30.29 in 1.8 mi Calm Calm - N/A   Clear
2:35 AM 50.0 °F - 50.0 °F 100% 30.29 in 0.2 mi Calm Calm - N/A Fog Fog
2:52 AM 50.0 °F - 50.0 °F 100% 30.30 in 0.2 mi Calm Calm - N/A Fog Fog
3:17 AM 50.0 °F - 50.0 °F 100% 30.30 in 0.5 mi Calm Calm - N/A Fog Fog
3:43 AM 48.2 °F - 48.2 °F 100% 30.30 in 0.2 mi Calm Calm - N/A Fog Fog
3:52 AM 48.9 °F - 48.9 °F 100% 30.30 in 0.2 mi Calm Calm - N/A Fog Fog
4:03 AM 48.2 °F - 48.2 °F 100% 30.30 in 0.5 mi Calm Calm - N/A Fog Fog
4:19 AM 48.2 °F - 48.2 °F 100% 30.30 in 0.2 mi Calm Calm - N/A Fog Fog
4:52 AM 48.0 °F - 48.0 °F 100% 30.30 in 0.2 mi Calm Calm - N/A Fog Fog
5:02 AM 48.2 °F - 48.2 °F 100% 30.29 in 0.2 mi Calm Calm - N/A Fog Fog
5:25 AM 48.2 °F - 48.2 °F 100% 30.29 in 0.8 mi Calm Calm - 0.01 in   Mist
5:30 AM 48.2 °F - 48.2 °F 100% 30.29 in 1.0 mi Calm Calm - 0.01 in   Clear
5:45 AM 48.2 °F - 48.2 °F 100% 30.29 in 3.0 mi Calm Calm - 0.01 in   Clear
5:52 AM 48.0 °F - 48.0 °F 100% 30.29 in 4.0 mi Calm Calm - 0.01 in   Clear
6:00 AM 46.4 °F - 46.4 °F 100% 30.29 in 1.8 mi Calm Calm - N/A   Clear
6:10 AM 46.4 °F 45.2 °F 46.4 °F 100% 30.29 in 4.0 mi NE 3.5 mph - N/A   Clear
6:52 AM 48.0 °F - 48.0 °F 100% 30.30 in 4.0 mi Calm Calm - N/A   Clear
7:52 AM 50.0 °F - 50.0 °F 100% 30.32 in 10.0 mi NE 4.6 mph - N/A   Clear
8:52 AM 59.0 °F - 57.9 °F 96% 30.32 in 10.0 mi Calm Calm - N/A   Clear
9:52 AM 61.0 °F - 55.9 °F 83% 30.33 in 10.0 mi East 6.9 mph - N/A   Clear
10:52 AM 63.0 °F - 55.9 °F 78% 30.32 in 10.0 mi East 8.1 mph - N/A   Clear
11:52 AM 64.0 °F - 55.0 °F 73% 30.30 in 10.0 mi ESE 8.1 mph - N/A   Clear
12:52 PM 64.0 °F - 55.9 °F 75% 30.27 in 10.0 mi East 10.4 mph - N/A   Scattered Clouds
1:52 PM 63.0 °F - 55.9 °F 78% 30.24 in 10.0 mi East 12.7 mph - N/A   Scattered Clouds
2:52 PM 63.0 °F - 57.0 °F 81% 30.22 in 10.0 mi East 11.5 mph - N/A   Mostly Cloudy
3:52 PM 62.1 °F - 57.0 °F 84% 30.20 in 10.0 mi East 11.5 mph - N/A   Partly Cloudy
4:52 PM 60.1 °F - 55.9 °F 86% 30.20 in 10.0 mi East 11.5 mph - N/A   Clear
5:52 PM 60.1 °F - 55.9 °F 86% 30.18 in 10.0 mi ESE 12.7 mph - N/A   Clear
6:52 PM 59.0 °F - 55.9 °F 90% 30.18 in 10.0 mi ESE 11.5 mph - N/A   Clear
7:52 PM 59.0 °F - 55.0 °F 87% 30.19 in 10.0 mi SE 13.8 mph - N/A   Clear
8:52 PM 60.1 °F - 55.9 °F 86% 30.19 in 10.0 mi ESE 13.8 mph - N/A   Mostly Cloudy
9:52 PM 60.1 °F - 54.0 °F 80% 30.19 in 10.0 mi SE 10.4 mph - N/A   Mostly Cloudy
10:52 PM 61.0 °F - 55.0 °F 81% 30.17 in 10.0 mi SE 12.7 mph - N/A   Overcast
11:52 PM 61.0 °F - 55.0 °F 81% 30.15 in 10.0 mi SSE 11.5 mph - N/A   Overcast